This demonstration page uses our WeatherBlox Daily Observations layout. Learn more.

Left ArrowRight Arrow

Hourly Observations for July 23, 2016

Temp ( °F °C ) Dew Point ( °F °C ) Humidity (%) Winds ( mph kmh ) Pressure ( in mb ) Visibility ( mi km ) Precip ( " mm )
12:53 am 00:53 Clear 80 26.7 68 20 67 67 E 9 15 29.85 1011 10 16 0.00 0.00
1:53 am 01:53 Clear 78 25.6 67 19.4 69 69 SE 9 15 29.85 1011 10 16 0.00 0.00
2:53 am 02:53 Partly Cloudy 78 25.6 68 20 71 71 WSW 6 9 29.88 1012 10 16 0.00 0.00
3:53 am 03:53 Clear 75 23.9 67 19.4 76 76 NW 14 22 29.91 1013 10 16 0.00 0.00
4:53 am 04:53 Clear 72 22 66 19 83 83 E 3 6 29.85 1011 10 16 0.00 0.00
5:53 am 05:53 Mostly Clear 72 22.2 67 19.4 84 84 S 8 13 29.83 1010 10 16 0.00 0.00
6:53 am 06:53 Mostly Sunny 73 22.8 68 20 84 84 SSE 12 19 29.80 1009 10 16 0.00 0.03
7:53 am 07:53 Mostly Cloudy 75 23.9 68 20 79 79 S 15 24 29.78 1009 10 16 0.00 0.00
8:53 am 08:53 Sunny 77 25 69 20.6 77 77 S 6 9 29.80 1009 10 16 0.00 0.00
9:53 am 09:53 Mostly Cloudy with Light Rain 78 25.6 69 20.6 74 74 S 12 19 29.80 1009 10 16 0.00 0.03
10:53 am 10:53 Sunny 80 26.7 67 19.4 64 64 S 10 17 29.80 1009 10 16 0.00 0.03
11:53 am 11:53 Sunny 83 28.3 68 20 61 61 S 14 22 29.80 1009 10 16 0.00 0.00
12:53 pm 12:53 Sunny 84 28.9 69 20.6 61 61 SSW 9 15 29.80 1009 10 16 0.00 0.00
1:53 pm 13:53 Sunny 92 33.3 70 21.1 49 49 SW 10 17 29.78 1008 10 16 0.00 0.00
2:53 pm 14:53 Sunny 96 35.6 67 19.4 39 39 S 12 19 29.76 1008 10 16 0.00 0.00
3:53 pm 15:53 Sunny 96 35.6 69 20.6 41 41 WSW 7 11 29.76 1008 10 16 0.00 0.00
4:53 pm 16:53 Sunny 98 36.7 71 21.7 42 42 WSW 7 11 29.74 1007 10 16 0.00 0.00
5:53 pm 17:53 Sunny 94 34.4 74 23.3 52 52 NW 8 13 29.74 1007 10 16 0.00 0.00
6:53 pm 18:53 Sunny 93 33.9 74 23.3 54 54 NW 5 7 29.73 1007 10 16 0.00 0.00
7:53 pm 19:53 Sunny 89 31.7 78 25.6 70 70 N 6 9 29.75 1007 10 16 0.00 0.00
8:53 pm 20:53 Sunny 85 29.4 76 24.4 75 75 NE 5 7 29.76 1008 10 16 0.00 0.00
9:53 pm 21:53 Clear 83 28.3 75 23.9 77 77 ENE 3 6 29.79 1009 8 13 0.00 0.00
10:53 pm 22:53 Clear 81 27.2 75 23.9 82 82 Calm 29.80 1009 10 16 0.00 0.00
11:53 pm 23:53 Clear 79 26.1 74 23.3 85 85 N 3 6 29.81 1010 10 16 0.00 0.00

Powered by AerisWeather